XBPDL MMJC-MMMX

Flight info

Callsign XBPDL
Flight time N/A
Altitude 8500
Route DCT
Aircraft P28A/L-SD/C

Departure

Time 2026-05-05 02:52
Airport Jorge Jiménez Cantú National Airport (MMJC)

Arrival

Time N/A
Airport Mexico City Benito Juárez International Airport (MMMX)
Time Latitude Longitude Altitude Speed Heading
2026-05-05 02:48 19.57103 -99.29318 8250 ft 6 kts 211°
2026-05-05 02:48 19.57066 -99.29355 8256 ft 15 kts 225°
2026-05-05 02:48 19.57009 -99.29419 8262 ft 6 kts 237°
2026-05-05 02:49 19.57015 -99.29423 8262 ft 0 kts 44°
2026-05-05 02:49 19.57091 -99.29337 8252 ft 35 kts 44°
2026-05-05 02:49 19.57341 -99.29058 8223 ft 66 kts 45°
2026-05-05 02:50 19.57689 -99.28674 8198 ft 77 kts 51°
2026-05-05 02:50 19.58056 -99.28235 8230 ft 81 kts 51°
2026-05-05 02:50 19.58443 -99.27737 8224 ft 93 kts 66°
2026-05-05 02:50 19.58386 -99.27109 8291 ft 90 kts 136°
2026-05-05 02:51 19.57801 -99.26967 8352 ft 91 kts 191°
2026-05-05 02:51 19.57181 -99.27058 8432 ft 91 kts 184°
2026-05-05 02:51 19.56538 -99.27070 8548 ft 94 kts 177°
2026-05-05 02:51 19.55884 -99.27043 8643 ft 97 kts 178°
2026-05-05 02:52 19.55190 -99.27001 8708 ft 105 kts 175°
2026-05-05 02:52 19.54463 -99.26943 8763 ft 109 kts 176°
2026-05-05 02:52 19.53703 -99.26900 8836 ft 108 kts 174°
2026-05-05 02:52 19.52954 -99.26709 8819 ft 114 kts 159°
2026-05-05 02:53 19.52277 -99.26295 8807 ft 111 kts 145°
2026-05-05 02:53 19.51681 -99.25772 8769 ft 113 kts 139°
2026-05-05 02:53 19.51105 -99.25208 8753 ft 114 kts 141°
2026-05-05 02:53 19.50694 -99.24856 8762 ft 113 kts 143°
2026-05-05 02:54 19.49895 -99.24168 8766 ft 112 kts 147°
2026-05-05 02:54 19.49203 -99.23805 8764 ft 109 kts 159°
2026-05-05 02:54 19.48471 -99.23531 8710 ft 110 kts 163°
2026-05-05 02:54 19.47979 -99.23371 8708 ft 110 kts 163°
2026-05-05 02:55 19.47238 -99.23144 8699 ft 110 kts 165°
2026-05-05 02:55 19.46515 -99.22923 8721 ft 109 kts 163°
2026-05-05 02:55 19.45800 -99.22705 8692 ft 108 kts 156°
2026-05-05 02:55 19.45275 -99.22161 8648 ft 108 kts 120°
2026-05-05 02:56 19.45124 -99.21362 8597 ft 109 kts 100°
2026-05-05 02:56 19.45024 -99.20580 8592 ft 110 kts 104°
2026-05-05 02:56 19.44869 -99.19789 8638 ft 107 kts 101°
2026-05-05 02:56 19.44776 -99.19012 8639 ft 109 kts 101°
2026-05-05 02:57 19.44622 -99.18205 8609 ft 110 kts 107°
2026-05-05 02:57 19.44432 -99.17443 8673 ft 105 kts 110°
2026-05-05 02:57 19.44249 -99.16682 8600 ft 107 kts 106°
2026-05-05 02:57 19.44078 -99.15924 8571 ft 104 kts 108°
2026-05-05 02:58 19.43899 -99.15195 8545 ft 100 kts 109°
2026-05-05 02:58 19.43695 -99.14498 8545 ft 99 kts 119°
2026-05-05 02:58 19.43243 -99.13974 8540 ft 98 kts 150°
2026-05-05 02:58 19.42678 -99.13576 8502 ft 96 kts 149°
2026-05-05 02:59 19.42126 -99.13199 8511 ft 93 kts 150°
2026-05-05 02:59 19.41587 -99.12815 8516 ft 92 kts 147°
2026-05-05 02:59 19.41048 -99.12410 8381 ft 98 kts 143°
2026-05-05 02:59 19.40735 -99.11794 8353 ft 97 kts 90°
2026-05-05 03:00 19.41059 -99.11186 8191 ft 100 kts 51°
2026-05-05 03:00 19.41525 -99.10628 8032 ft 102 kts 57°
2026-05-05 03:00 19.41922 -99.10017 7812 ft 99 kts 66°
2026-05-05 03:00 19.42245 -99.09404 7648 ft 94 kts 66°
2026-05-05 03:01 19.42583 -99.08824 7471 ft 90 kts 70°
2026-05-05 03:01 19.42882 -99.08263 7334 ft 84 kts 68°
2026-05-05 03:01 19.43155 -99.07773 7300 ft 68 kts 55°
2026-05-05 03:01 19.43350 -99.07414 7298 ft 52 kts 56°
2026-05-05 03:02 19.43586 -99.07002 7297 ft 79 kts 61°
2026-05-05 03:02 19.43887 -99.06479 7399 ft 86 kts 69°
2026-05-05 03:02 19.44181 -99.05921 7555 ft 88 kts 67°
2026-05-05 03:02 19.44470 -99.05328 7698 ft 87 kts 69°
2026-05-05 03:03 19.44688 -99.04745 7808 ft 87 kts 87°
2026-05-05 03:03 19.44500 -99.04133 7905 ft 88 kts 133°
2026-05-05 03:03 19.44007 -99.03736 8084 ft 87 kts 145°
2026-05-05 03:03 19.43456 -99.03541 8316 ft 86 kts 185°
2026-05-05 03:04 19.42904 -99.03929 8364 ft 101 kts 231°
2026-05-05 03:04 19.42520 -99.04574 8462 ft 104 kts 233°
2026-05-05 03:04 19.42171 -99.05243 8517 ft 105 kts 237°
2026-05-05 03:04 19.41839 -99.05941 8542 ft 106 kts 235°
2026-05-05 03:05 19.41460 -99.06618 8566 ft 107 kts 235°
2026-05-05 03:05 19.41065 -99.07271 8577 ft 104 kts 232°
2026-05-05 03:05 19.40790 -99.07957 8526 ft 102 kts 270°
2026-05-05 03:05 19.41241 -99.08509 8292 ft 107 kts 333°
2026-05-05 03:06 19.41999 -99.08707 7827 ft 118 kts
2026-05-05 03:06 19.42754 -99.08457 7447 ft 111 kts 53°
2026-05-05 03:06 19.43125 -99.07832 7310 ft 89 kts 69°
2026-05-05 03:06 19.43400 -99.07337 7298 ft 67 kts 73°
2026-05-05 03:07 19.43643 -99.06927 7297 ft 73 kts 66°
2026-05-05 03:07 19.43917 -99.06425 7348 ft 84 kts 70°
2026-05-05 03:07 19.44221 -99.05877 7478 ft 87 kts 67°
2026-05-05 03:07 19.44532 -99.05318 7637 ft 89 kts 68°
2026-05-05 03:08 19.44874 -99.04755 7815 ft 89 kts 63°
2026-05-05 03:08 19.45060 -99.04135 7938 ft 91 kts 101°
2026-05-05 03:08 19.44689 -99.03625 8065 ft 91 kts 152°
2026-05-05 03:08 19.44128 -99.03280 8214 ft 93 kts 148°
2026-05-05 03:09 19.43491 -99.03281 8307 ft 99 kts 209°
2026-05-05 03:09 19.43074 -99.03871 8338 ft 103 kts 232°
2026-05-05 03:09 19.42717 -99.04523 8423 ft 99 kts 232°
2026-05-05 03:09 19.42353 -99.05133 8427 ft 100 kts 236°
2026-05-05 03:10 19.42003 -99.05789 8399 ft 102 kts 238°
2026-05-05 03:10 19.41738 -99.06471 8375 ft 103 kts 241°
2026-05-05 03:10 19.41385 -99.07147 8348 ft 104 kts 232°
2026-05-05 03:10 19.41031 -99.07790 8275 ft 102 kts 237°
2026-05-05 03:11 19.40672 -99.08432 8315 ft 100 kts 233°
2026-05-05 03:11 19.40341 -99.09082 8266 ft 99 kts 237°
2026-05-05 03:11 19.39997 -99.09710 8218 ft 98 kts 234°
2026-05-05 03:11 19.39642 -99.10321 8199 ft 100 kts 233°
2026-05-05 03:12 19.39327 -99.10965 8212 ft 100 kts 257°
2026-05-05 03:12 19.39575 -99.11663 8172 ft 109 kts 318°
2026-05-05 03:12 19.40234 -99.12060 8138 ft 109 kts 336°
2026-05-05 03:12 19.40926 -99.11929 8142 ft 107 kts 56°
2026-05-05 03:13 19.41242 -99.11234 8080 ft 107 kts 68°
2026-05-05 03:13 19.41605 -99.10537 8044 ft 108 kts 64°
2026-05-05 03:13 19.41984 -99.09877 7763 ft 103 kts 65°
2026-05-05 03:13 19.42351 -99.09236 7533 ft 99 kts 70°
2026-05-05 03:14 19.42685 -99.08620 7414 ft 93 kts 70°
2026-05-05 03:14 19.43004 -99.08045 7317 ft 85 kts 69°
2026-05-05 03:14 19.43276 -99.07566 7299 ft 67 kts 70°
2026-05-05 03:14 19.43489 -99.07175 7297 ft 64 kts 63°
2026-05-05 03:15 19.43755 -99.06702 7301 ft 84 kts 54°
2026-05-05 03:15 19.44061 -99.06163 7419 ft 86 kts 70°
2026-05-05 03:15 19.44367 -99.05603 7532 ft 93 kts 69°
2026-05-05 03:15 19.44668 -99.05004 7691 ft 93 kts 71°
2026-05-05 03:16 19.44874 -99.04357 7835 ft 92 kts 92°
2026-05-05 03:16 19.44557 -99.03813 7964 ft 94 kts 156°
2026-05-05 03:16 19.43935 -99.03991 8045 ft 107 kts 227°
2026-05-05 03:16 19.43548 -99.04667 8122 ft 109 kts 235°
2026-05-05 03:17 19.43177 -99.05353 8184 ft 106 kts 236°
2026-05-05 03:17 19.42827 -99.06033 8191 ft 105 kts 234°
2026-05-05 03:17 19.42429 -99.06690 8131 ft 106 kts 231°
2026-05-05 03:17 19.42232 -99.07002 8150 ft 104 kts 231°
2026-05-05 03:18 19.42226 -99.07013 8148 ft 104 kts 231°
2026-05-05 03:18 19.41804 -99.07677 8050 ft 109 kts 231°
2026-05-05 03:19 19.40972 -99.08966 8015 ft 106 kts 228°
2026-05-05 03:19 19.40540 -99.09590 8022 ft 103 kts 231°
2026-05-05 03:19 19.40350 -99.10279 7970 ft 106 kts 281°
2026-05-05 03:20 19.40839 -99.10857 7950 ft 109 kts 332°
2026-05-05 03:20 19.41535 -99.10856 7951 ft 99 kts 48°
2026-05-05 03:20 19.41796 -99.10186 7756 ft 104 kts 73°
2026-05-05 03:20 19.42169 -99.09510 7710 ft 105 kts 63°
2026-05-05 03:21 19.42547 -99.08883 7530 ft 96 kts 69°
2026-05-05 03:21 19.42867 -99.08277 7344 ft 90 kts 66°
2026-05-05 03:21 19.43161 -99.07764 7306 ft 72 kts 68°
2026-05-05 03:21 19.43391 -99.07351 7298 ft 66 kts 57°
2026-05-05 03:22 19.43664 -99.06873 7299 ft 85 kts 65°
2026-05-05 03:22 19.43967 -99.06332 7445 ft 86 kts 70°
2026-05-05 03:22 19.44272 -99.05769 7583 ft 90 kts 67°
2026-05-05 03:22 19.44603 -99.05184 7708 ft 94 kts 71°
2026-05-05 03:23 19.44599 -99.04547 7851 ft 90 kts 122°
2026-05-05 03:23 19.44120 -99.04098 7935 ft 94 kts 142°
2026-05-05 03:23 19.43630 -99.03674 8201 ft 89 kts 141°
2026-05-05 03:23 19.43178 -99.03218 8414 ft 92 kts 128°
2026-05-05 03:24 19.42890 -99.02595 8598 ft 94 kts 111°
2026-05-05 03:24 19.42685 -99.01940 8773 ft 94 kts 115°
2026-05-05 03:24 19.42393 -99.01327 8915 ft 94 kts 120°
2026-05-05 03:24 19.42204 -99.00643 8996 ft 99 kts 105°
2026-05-05 03:25 19.42060 -98.99940 9091 ft 97 kts 107°
2026-05-05 03:25 19.41867 -98.99252 9146 ft 100 kts 110°
2026-05-05 03:25 19.41597 -98.98580 9206 ft 101 kts 116°
2026-05-05 03:25 19.41396 -98.97828 9218 ft 111 kts 105°
2026-05-05 03:26 19.41241 -98.97054 9313 ft 104 kts 108°
2026-05-05 03:26 19.41006 -98.96301 9317 ft 110 kts 114°
2026-05-05 03:26 19.40716 -98.95585 9418 ft 105 kts 107°
2026-05-05 03:26 19.40568 -98.94821 9456 ft 105 kts 105°
2026-05-05 03:27 19.40400 -98.94082 9508 ft 104 kts 107°
2026-05-05 03:27 19.40225 -98.93357 9618 ft 99 kts 107°
2026-05-05 03:27 19.40076 -98.92633 9676 ft 102 kts 104°
2026-05-05 03:27 19.39918 -98.91920 9784 ft 99 kts 109°
2026-05-05 03:28 19.39690 -98.91209 9845 ft 101 kts 107°
2026-05-05 03:28 19.39556 -98.90483 9936 ft 98 kts 104°
2026-05-05 03:28 19.39465 -98.89784 10024 ft 100 kts 101°
2026-05-05 03:28 19.39355 -98.89055 10159 ft 97 kts 101°
2026-05-05 03:29 19.39252 -98.88352 10253 ft 99 kts 102°
2026-05-05 03:29 19.39142 -98.87624 10328 ft 100 kts 103°
2026-05-05 03:29 19.39000 -98.86907 10413 ft 99 kts 105°
2026-05-05 03:29 19.38830 -98.86202 10482 ft 98 kts 107°
2026-05-05 03:30 19.38658 -98.85495 10546 ft 99 kts 106°
2026-05-05 03:30 19.38464 -98.84808 10645 ft 97 kts 109°
2026-05-05 03:30 19.38264 -98.84122 10714 ft 98 kts 109°
2026-05-05 03:30 19.38044 -98.83448 10810 ft 97 kts 111°
2026-05-05 03:31 19.37781 -98.82786 10884 ft 98 kts 115°
2026-05-05 03:31 19.37528 -98.82117 10973 ft 97 kts 113°
2026-05-05 03:31 19.37218 -98.81477 11032 ft 99 kts 127°
2026-05-05 03:31 19.36744 -98.80951 11121 ft 98 kts 135°
2026-05-05 03:32 19.36230 -98.80468 11169 ft 101 kts 140°
2026-05-05 03:32 19.35686 -98.80025 11275 ft 97 kts 144°
2026-05-05 03:32 19.35121 -98.79600 11339 ft 100 kts 145°
2026-05-05 03:32 19.34548 -98.79211 11428 ft 99 kts 147°
2026-05-05 03:33 19.33978 -98.78811 11522 ft 96 kts 144°
2026-05-05 03:33 19.33431 -98.78381 11568 ft 100 kts 143°
2026-05-05 03:33 19.32852 -98.77958 11578 ft 103 kts 147°
2026-05-05 03:33 19.32294 -98.77487 11583 ft 102 kts 133°
2026-05-05 03:34 19.31868 -98.76882 11583 ft 103 kts 123°
2026-05-05 03:34 19.31550 -98.76205 11589 ft 103 kts 109°
2026-05-05 03:34 19.31324 -98.75490 11606 ft 103 kts 109°
2026-05-05 03:34 19.31148 -98.74752 11596 ft 104 kts 99°
2026-05-05 03:35 19.31056 -98.73993 11556 ft 108 kts 92°
2026-05-05 03:35 19.31150 -98.73208 11543 ft 108 kts 78°
2026-05-05 03:35 19.31391 -98.72464 11558 ft 107 kts 68°
2026-05-05 03:35 19.31696 -98.71739 11536 ft 109 kts 65°
2026-05-05 03:36 19.31926 -98.71193 11516 ft 110 kts 66°
2026-05-05 03:36 19.32235 -98.70458 11517 ft 109 kts 67°
2026-05-05 03:36 19.32577 -98.69717 11456 ft 113 kts 63°
2026-05-05 03:36 19.32979 -98.69011 11457 ft 112 kts 54°
2026-05-05 03:37 19.33483 -98.68378 11434 ft 112 kts 52°
2026-05-05 03:37 19.33770 -98.67632 11395 ft 112 kts 90°
2026-05-05 03:37 19.33516 -98.66880 11389 ft 108 kts 121°
2026-05-05 03:37 19.33151 -98.66186 11405 ft 108 kts 118°
2026-05-05 03:38 19.33134 -98.66151 11403 ft 109 kts 118°